#timestamp,LO_Frequency,Hit,StdDev 
1622007395.4,286046984.5,P
1622007415.2,286046982.7,P
1622007435.1,286046983.0,P
1622007436.0,286046983.0,Y
1622007455.8,286046999.1,P
1622007475.7,286047000.3,N
1622007495.5,286047002.7,N
1622007515.3,286046999.9,N
1622007535.2,286047000.2,N
1622007555.9,286046999.8,N
1622007575.7,286047002.3,N
1622007595.6,286047002.3,N
1622007615.4,286047001.7,N
1622007635.2,286047002.2,N
1622007655.1,286047000.4,N
1622007656.0,286047000.4,N
1622007675.8,286047001.7,N
1622007695.7,286047002.5,N
1622007715.5,286046999.8,N
1622007735.3,286046998.2,N
1622007755.2,286047001.0,N
1622007775.0,286047002.7,N
1622007775.9,286047002.7,N
1622007795.8,286047001.4,N
1622007815.6,286047004.2,N
1622007835.4,286047002.1,N
1622007855.3,286047001.8,N
1622007875.1,286047004.1,N
1622007895.8,286046998.6,N
1622007915.7,286046997.4,N
1622007935.5,286046998.4,N
1622007955.3,286046999.4,N
1622007975.2,286047000.7,N
1622007995.0,286047003.7,N
1622007995.9,286047003.7,N
1622008015.8,286046997.5,N
1622008035.6,286047005.9,Y
1622008055.4,286047003.1,P
1622008075.3,286046999.4,N
1622008095.1,286047001.6,N
1622008115.9,286047005.5,Y
1622008135.7,286046999.7,P
1622008155.5,286046998.1,N
1622008175.4,286046993.8,P
1622008195.2,286047001.5,N
1622008215.0,286046995.5,N
1622008215.9,286046995.5,N
1622008235.8,286046996.9,N
1622008255.6,286046997.5,N
1622008275.5,286047003.4,N
1622008295.3,286046998.6,N
1622008315.1,286047002.3,N
1622008335.9,286046996.4,N
1622008355.7,286047001.2,N
1622008375.6,286046997.8,N
1622008395.4,286046995.9,N
1622008415.2,286046996.4,N
1622008435.1,286046995.9,N
1622008436.0,286046995.9,N
1622008455.8,286046995.5,N
1622008475.6,286046994.9,N
1622008495.5,286046996.1,N
1622008515.3,286046994.6,N
1622008535.2,286046992.4,N
1622008555.9,286046991.8,N
1622008575.7,286046993.0,N
1622008595.6,286046993.1,N
1622008615.4,286046992.9,N
1622008635.3,286046990.3,Y
1622008655.1,286046995.8,P
1622008656.0,286046995.8,P
1622008675.8,286046993.9,P
1622008695.7,286046993.9,Y
1622008715.5,286046997.4,P
1622008735.4,286046994.1,P
1622008755.2,286046995.4,P
1622008775.0,286046996.4,Y
1622008775.9,286046996.4,P
1622008795.8,286046995.1,P
